Regional Weather Roundup
Issued by NWS Little Rock, AR

Home | Current Version | Previous Version | Text Only | Print | Product List | Glossary Off
Versions: 1 2 3 4 5 6 7 8 9 10 11 12 13 14 15 16 17 18 19 20 21 22 23 24 25 26 27 28 29 30 31 32 33 34 35 36 37 38 39 40 41 42 43 44 45 46 47 48 49 50

000
ASUS44 KLZK 240305
RWRLZK

WEATHER ROUNDUP FOR ARKANSAS
NATIONAL WEATHER SERVICE LITTLE ROCK AR
1000 PM CDT MON MAY 23 2016

NOTE: "FAIR" INDICATES FEW OR NO CLOUDS BELOW 12,000 FEET WITH NO
SIGNIFICANT WEATHER AND/OR OBSTRUCTIONS TO VISIBILITY.

ARZ001-003-010-029-240400-
NORTHWEST ARKANSAS

CITY           SKY/WX    TMP DP  RH WIND       PRES   REMARKS
FAYETTEVILLE   PTCLDY    62  62 100 E5        29.93S
FORT SMITH     MOCLDY    68  64  87 E7        29.90R
HARRISON       PTCLDY    64  60  87 S5        29.95R
BENTONVILLE    PTCLDY    63  57  82 SE5       29.94R
ROGERS           N/A     62  61  96 SE7       29.94S
SILOAM SPGS    CLEAR     63  54  72 E6        29.93R
HIGHFILL       PTCLDY    63  62  97 CALM      29.92F
$$

ARZ004-005-016-240400-
NORTH CENTRAL ARKANSAS

CITY           SKY/WX    TMP DP  RH WIND       PRES   REMARKS
BATESVILLE     PTCLDY    66  59  77 CALM      29.95R
FLIPPIN        PTCLDY   N/A N/A N/A CALM      29.91R
MTN HOME       CLEAR     62  60  93 CALM      29.93R
$$

ARZ040-041-240400-
WEST CENTRAL ARKANSAS

CITY           SKY/WX    TMP DP  RH WIND       PRES   REMARKS
MENA           MOCLDY    72  70  94 W8        29.89F THUNDER
MOUNT IDA      CLOUDY    74  63  68 SE8       29.89F
$$

ARZ009-017-025-026-028-240400-
NORTHEAST ARKANSAS

CITY           SKY/WX    TMP DP  RH WIND       PRES   REMARKS
CORNING          N/A     72  55  56 SW5       29.94R
JONESBORO      CLOUDY    74  52  46 S6        29.94R
NEWPORT        CLOUDY    72  57  58 SE7       29.94R
WALNUT RIDGE   CLOUDY    73  52  46 SW6       29.94R
BLYTHEVILLE    MOCLDY    72  53  51 SE8       29.96F
$$

ARZ022-023-033-042-044-240400-
CENTRAL ARKANSAS

CITY           SKY/WX    TMP DP  RH WIND       PRES   REMARKS
LITTLE ROCK    CLOUDY    72  62  71 S5        29.94R
N LITTLE ROCK    N/A     71  62  73 CALM      29.92R
JACKSONVILLE   CLOUDY    73  63  69 S6        29.93R
SEARCY         MOCLDY    69  62  78 S5        29.95R
HOT SPRINGS    PTCLDY    73  62  68 CALM      29.95R
RUSSELLVILLE   CLEAR     68  64  87 E3        29.92R
CLINTON        FAIR      64  64 100 CALM      29.94S
$$

ARZ036-240400-
EAST ARKANSAS

CITY           SKY/WX    TMP DP  RH WIND       PRES   REMARKS
WEST MEMPHIS   PTCLDY    70  53  54 SE7       29.95S
$$

ARZ050-053-066-070-073-240400-
SOUTHWEST ARKANSAS

CITY           SKY/WX    TMP DP  RH WIND       PRES   REMARKS
ARKADELPHIA    FAIR      68  68 100 CALM      29.96R
CAMDEN         CLEAR     66  61  82 CALM      29.95R
TEXARKANA      PTCLDY    73  65  75 SE5       29.94R
EL DORADO      CLEAR     70  66  87 CALM      29.95R
DE QUEEN       CLOUDY    74  68  81 SE8       29.90S
$$

ARZ056-057-069-240400-
SOUTHEAST ARKANSAS

CITY           SKY/WX    TMP DP  RH WIND       PRES   REMARKS
PINE BLUFF     PTCLDY    69  63  81 S7        29.95R
STUTTGART      PTCLDY    75  55  50 S7        29.95S
MONTICELLO     CLEAR     68  62  81 CALM      29.96R

$$





USA.gov is the U.S. government's official web portal to all federal, state and local government web resources and services.